User: anonymous   Login
Location: Domont
(49.0278°N, 2.3264°E)
Time: 01:45:29
(UTC+00:00)
Language:

BEESAT 2 - Orbit

View from above orbital plane
View from above orbital plane
View from above satellite
View from above satellite

Ground track
Ground track

The orbit data is extracted from the following two-line orbital elements,

1 39136U 13015G   22180.06234251  .00004869  00000-0  21340-3 0  9998
2 39136  64.8757  68.3295 0017043 296.0011  63.9362 15.23085133507684
Epoch (UTC): 29 June 2022 01:29:46
Eccentricity: 0.0017043
inclination: 64.8757°
perigee height: 485 km
apogee height: 508 km
right ascension of ascending node: 68.3295°
argument of perigee: 296.0011°
revolutions per day: 15.23085133
mean anomaly at epoch: 63.9362°
orbit number at epoch: 50768

The dashed part of the orbit path shows where the satellite is in the earth's shadow,  

DLR